Regional Weather Roundup
Issued by NWS

Home | Current Version | Previous Version | Graphics & Text | Print | Product List | Glossary On
Versions: 1 2 3 4 5 6 7 8 9 10 11 12 13 14 15 16 17 18 19 20 21 22 23 24 25 26 27 28 29 30 31 32 33 34 35 36 37 38 39 40 41 42 43 44 45 46 47 48 49 50
000
ASUS45 KSLC 142010
RWRUT

UTAH REGIONAL WEATHER ROUNDUP
NATIONAL WEATHER SERVICE SALT LAKE CITY UT
100 PM MST THU DEC 14 2017

UTZ001>011-023>025-142100-

NORTHERN UTAH

CITY           SKY/WX    TMP DP  RH WIND       PRES   REMARKS
BRIGHAM CITY   SUNNY     35  29  80 S3        30.44S
DUGWAY         SUNNY     37  23  57 SW2       30.44F
HILL AFB       NOT AVBL
LOGAN          SUNNY     31  22  69 SW3       30.44F
OGDEN          SUNNY     36  26  67 S5        30.42F WCI  32
SALT LAKE CITY MOSUNNY   38  28  67 CALM      30.43F
TOOELE VALLEY  SUNNY     36  28  75 N3        30.45S
WENDOVER       SUNNY     34  22  61 SE6       30.45F WCI  29
HEBER CITY       N/A     39  23  52 CALM      30.35F
WEST JORDAN    SUNNY     35  29  79 CALM      30.43F

$$

UTZ011>015-024>027-142100-

CENTRAL/NORTHEAST UTAH

CITY           SKY/WX    TMP DP  RH WIND       PRES   REMARKS
PROVO AIRPORT  CLOUDY    35  24  64 VRB3      30.45F
MOAB/CANYONLAN SUNNY     49  18  29 E16       30.27F
DELTA          SUNNY     36  23  60 CALM      30.42F
PRICE          SUNNY     46  21  37 VRB3      30.27F
RICHFIELD      SUNNY     39  23  52 N6        30.39F WCI  35
ROOSEVELT      SUNNY     41  19  42 S6        30.36F
VERNAL         SUNNY     41  20  43 SW9G17    30.32F

$$

UTZ013>016-019>022-027-142100-

SOUTHERN UTAH

CITY           SKY/WX    TMP DP  RH WIND       PRES   REMARKS
BRYCE CANYON   SUNNY     43  10  26 N17G28    30.28F
CEDAR CITY     SUNNY     41  21  44 N14       30.33F
MILFORD        SUNNY     39  22  50 N17       30.38F WCI  30
ST GEORGE      CLEAR     56  22  26 S5        30.26F
HANKSVILLE     SUNNY     50  19  29 W8        30.31F
BLANDING         N/A     49  11  22 N9G28     30.25R

$$

REGIONAL REPORTS     COLORADO/ARIZONA

CITY           SKY/WX    TMP DP  RH WIND       PRES   REMARKS
CRAIG, CO      SUNNY     33  18  53 NW15G23   30.32S WCI  23
GRAND JUNCTION SUNNY     46  16  30 NE9       30.28S
RIFLE, CO      SUNNY     43  13  29 NW15G22   30.27S
MONTROSE, CO   PTSUNNY   40  20  44 VRB5      30.27F
CORTEZ, CO     SUNNY     50  20  30 N8G17     30.13S
COLORADO CITY    N/A     54  19  26 W10       30.26S
PAGE, AZ       SUNNY     54  20  26 NE9       30.22S
GRAND CANYON   SUNNY     45  15  30 NE21G29   30.20S
KINGMAN, AZ    SUNNY     59  21  23 N29G37    30.15F
FLAGSTAFF, AZ  SUNNY     41  18  39 NE25G39   30.13F

$$

REGIONAL REPORTS    NEVADA/IDAHO/WYOMING

CITY           SKY/WX    TMP DP  RH WIND       PRES   REMARKS
LAS VEGAS, NV  SUNNY     64  22  20 N16       30.22F
ELY, NY        SUNNY     42  22  44 N10       30.38F
ELKO, NV       SUNNY     38  23  55 CALM      30.42F
POCATELLO, ID  FOG       23  21  92 NE8       30.48F VSB 1   WCI  14
BURLEY, ID     CLOUDY    27  23  85 NE3       30.45F
FORT BRIDGER,    N/A     37  19  47 W14G22    30.35F WCI  28
EVANSTON, WY   SUNNY     35  22  58 CALM      30.34F
ROCK SPRINGS,  MOSUNNY   32  22  66 W14       30.30F WCI  22

$$



USA.gov is the U.S. government's official web portal to all federal, state and local government web resources and services.